Voltar ao catálogo

STARLINK-36878

AtivoComunicaçõesSSO
NORAD 67899·PAYLOAD·🇺🇸 United States

Lançado Feb 21, 2026 de Vandenberg Space Force Base

Loading…

Próximas Passagens (próximas 24 horas)

TLE

AtualizadoSource: CelesTrak SupGP

Época: Sep 14, 2026, 21:39 UTC

1 67899C 26035W   26257.90256944 -.00050151  00000+0 -15558-2 0  2572
2 67899  97.2848 189.8937 0001797  91.2070 109.7695 15.33483403    19

Acompanhe STARLINK-36878 em tempo real com AllMySat

Download on the App Store